DateTimeUTC,F1_A11,F1_S11,BsB_S11,BsG_S11,BsR_S11,BbsB_S11,BbsG_S11,BbsR_S11,BaB_A11,BaG_A11,BaR_A11,Tu_S11,T_S11,Uu_S11,U_S11,P_S11,T1_A11
2021-07-01T21:00:00Z,00000200,20000000,,,,,,,0000.05,0000.12,0000.16,19.3,26.0,05.6,03.7,0675.4,31.2
2021-07-01T21:01:00Z,00000200,20000000,,,,,,,-000.22,-000.16,-000.10,19.3,26.0,05.6,03.7,0675.4,31.2
2021-07-01T21:02:00Z,00000200,20000000,,,,,,,0000.03,0000.10,-000.05,19.2,26.0,05.3,03.5,0675.4,31.2
2021-07-01T21:03:00Z,00000200,60000000,,,,,,,-000.21,-000.43,-000.12,19.2,26.0,05.3,03.5,0675.4,31.2
2021-07-01T21:04:00Z,00000200,40000000,0000.86,0000.18,0000.45,0000.26,-000.13,0000.60,0000.07,0000.12,-000.02,19.2,25.8,05.4,03.6,0676.3,31.2
2021-07-01T21:05:00Z,00000200,00000000,0000.16,0000.28,-000.10,-000.29,0000.27,-000.23,-000.15,-000.23,-000.20,19.3,25.7,05.4,03.7,0676.4,31.2
2021-07-01T21:06:00Z,00000200,00000000,0000.78,0000.07,0000.20,-000.02,0000.30,0000.15,-000.25,0000.03,-000.06,19.2,25.7,05.5,03.7,0676.4,31.2
2021-07-01T21:07:00Z,00000200,00000000,-000.36,0000.04,-000.17,0000.19,0000.04,0000.04,0000.52,0000.32,0000.25,19.2,25.7,05.5,03.7,0676.4,31.2
2021-07-01T21:08:00Z,00000200,00000000,0000.16,-000.25,-000.10,0000.31,0000.04,-000.23,0000.06,0000.11,0000.20,19.2,25.7,05.5,03.7,0676.4,31.2
2021-07-01T21:09:00Z,00000200,00000000,0000.37,-000.17,0000.12,0000.28,-000.09,0000.23,-000.33,-000.13,-000.19,19.3,25.7,05.6,03.8,0676.3,31.2
2021-07-01T21:10:00Z,00000200,00000000,-000.27,-000.18,-000.55,0000.18,0000.18,-000.14,0000.15,0000.15,0000.16,19.4,25.7,05.5,03.7,0676.4,31.2
2021-07-01T21:11:00Z,00000200,00000000,0000.28,0000.12,0000.29,0000.01,-000.01,0000.11,-000.10,0000.02,-000.13,19.4,25.8,05.5,03.7,0676.4,31.2
2021-07-01T21:12:00Z,00000200,00000000,0000.42,0000.25,-000.06,0000.47,0000.12,-000.13,0000.21,-000.10,0000.16,19.4,25.8,05.4,03.7,0676.4,31.2
2021-07-01T21:13:00Z,00000200,00000000,-000.42,0000.09,0000.09,0000.22,-000.08,0000.03,0000.02,0000.12,-000.14,19.4,25.8,05.5,03.7,0676.4,31.2
2021-07-01T21:14:00Z,00000200,00000000,0000.28,0000.20,0000.11,0000.35,0000.19,0000.31,0000.03,-000.10,-000.15,19.4,25.8,05.4,03.6,0676.4,31.2
2021-07-01T21:15:00Z,00000200,00000000,0000.00,-000.18,0000.02,-000.08,-000.20,-000.02,-000.10,0000.29,0000.18,19.4,25.7,05.3,03.6,0676.3,31.2
2021-07-01T21:16:00Z,00000200,00000000,0000.49,0000.09,0000.23,0000.40,-000.18,0000.12,-000.07,-000.40,0000.20,19.4,25.8,05.3,03.6,0676.3,31.2
2021-07-01T21:17:00Z,00000200,00000000,0000.77,-000.08,0000.24,0000.31,0000.12,0000.12,-000.01,-000.07,-000.24,19.4,25.7,05.3,03.6,0676.3,31.2
2021-07-01T21:18:00Z,00000200,00000000,0000.36,0000.10,-000.09,0000.21,0000.19,0000.14,0000.16,-000.04,0000.16,19.3,25.7,05.3,03.6,0676.3,31.2
2021-07-01T21:19:00Z,00000200,00000000,-000.10,-000.02,0000.40,0000.01,-000.13,0000.20,0000.04,0000.43,0000.17,19.3,25.7,05.2,03.5,0676.3,31.2
2021-07-01T21:20:00Z,00000200,00000000,0000.25,0000.14,0000.29,-000.49,0000.02,0000.01,-000.22,-000.40,-000.60,19.3,25.7,05.3,03.6,0676.3,31.2
2021-07-01T21:21:00Z,00000200,00000000,0000.16,-000.06,0000.15,0000.06,-000.05,0000.18,0000.08,0000.32,0000.21,19.3,25.7,05.3,03.6,0676.4,31.2
2021-07-01T21:22:00Z,00000200,00000000,0000.29,-000.03,0000.24,0000.05,-000.07,0000.25,0000.21,-000.05,0000.37,19.3,25.7,05.3,03.6,0676.3,31.2
2021-07-01T21:23:00Z,00000200,00000000,-000.06,0000.23,0000.02,0000.24,0000.13,-000.04,0000.16,0000.10,-000.14,19.3,25.7,05.2,03.6,0676.4,31.2
2021-07-01T21:24:00Z,00000200,00000000,0000.44,0000.36,-000.03,0000.79,0000.14,0000.10,-000.36,0000.27,0000.05,19.3,25.7,05.2,03.6,0676.4,31.2
2021-07-01T21:25:00Z,00000200,00000000,0000.07,0000.05,0000.07,-000.26,0000.24,-000.05,0000.23,-000.22,-000.08,19.4,25.7,05.4,03.7,0676.4,31.3
2021-07-01T21:26:00Z,00000200,00000000,-000.00,0000.43,0000.19,-000.19,-000.10,0000.33,0000.18,-000.01,0000.13,19.5,25.8,05.3,03.6,0676.4,31.3
2021-07-01T21:27:00Z,00000200,00000000,-000.39,-000.01,0000.28,0000.04,0000.02,0000.56,0000.25,0000.11,0000.02,19.5,25.8,05.2,03.6,0676.4,31.2
2021-07-01T21:28:00Z,00000200,00000000,0000.21,0000.02,-000.05,0000.23,0000.32,0000.13,-000.21,0000.21,0000.20,19.5,25.8,05.2,03.5,0676.4,31.2
2021-07-01T21:29:00Z,00000200,00000000,0000.06,0000.20,0000.20,0000.29,-000.03,0000.34,0000.11,-000.13,-000.17,19.5,25.8,05.1,03.5,0676.4,31.2
2021-07-01T21:30:00Z,00000200,00000000,-000.54,0000.04,0000.02,-000.21,0000.09,0000.23,-000.09,0000.35,0000.05,19.5,25.8,05.2,03.5,0676.5,31.2
2021-07-01T21:31:00Z,00000200,00000000,0000.09,0000.15,-000.08,0000.55,0000.11,0000.11,-000.21,-000.16,-000.02,19.5,25.8,05.2,03.5,0676.4,31.2
2021-07-01T21:32:00Z,00000200,00000000,0000.41,-000.04,0000.13,-000.32,0000.10,0000.11,0000.17,-000.05,0000.07,19.5,25.8,05.2,03.5,0676.4,31.2
2021-07-01T21:33:00Z,00000200,00000000,-000.14,-000.24,0000.14,0000.41,-000.08,0000.47,-000.05,-000.05,-000.01,19.4,25.8,05.3,03.6,0676.5,31.2
2021-07-01T21:34:00Z,00000200,00000000,-000.15,0000.04,-000.12,0000.26,0000.03,0000.00,-000.06,-000.10,-000.02,19.4,25.7,05.2,03.5,0676.5,31.2
2021-07-01T21:35:00Z,00000200,00000000,0000.09,-000.02,0000.25,0000.08,-000.09,0000.32,0000.14,0000.16,-000.24,19.4,25.7,05.1,03.5,0676.5,31.2
2021-07-01T21:36:00Z,00000200,00000000,-000.29,0000.06,0000.16,0000.39,-000.09,0000.24,-000.07,-000.05,0000.32,19.4,25.7,05.1,03.5,0676.5,31.2
2021-07-01T21:37:00Z,00000200,00000000,0000.90,0000.07,-000.01,-000.13,-000.16,0000.29,0000.02,-000.24,0000.18,19.3,25.7,05.1,03.5,0676.5,31.2
2021-07-01T21:38:00Z,00000200,00000000,-000.21,0000.03,-000.18,-000.33,0000.15,-000.04,-000.01,0000.14,-000.10,19.4,25.7,05.1,03.5,0676.5,31.2
2021-07-01T21:39:00Z,00000200,00000000,0000.16,0000.01,0000.42,-000.04,-000.05,0000.12,0000.26,0000.24,-000.14,19.4,25.7,05.1,03.5,0676.5,31.2
2021-07-01T21:40:00Z,00000200,00000000,0000.12,0000.34,-000.19,0000.49,0000.29,0000.32,-000.18,0000.08,0000.26,19.5,25.8,05.1,03.5,0676.5,31.2
2021-07-01T21:41:00Z,00000200,00000000,0000.42,0000.33,0000.07,-000.13,0000.16,-000.01,-000.10,-000.19,-000.03,19.5,25.8,05.0,03.4,0676.5,31.3
2021-07-01T21:42:00Z,00000200,00000000,-000.06,-000.03,0000.11,0000.07,-000.06,-000.03,-000.20,-000.10,-000.19,19.6,25.8,05.1,03.5,0676.5,31.3
2021-07-01T21:43:00Z,00000200,00000000,0000.37,0000.03,0000.19,0000.02,0000.15,-000.01,0000.19,0000.12,-000.21,19.6,25.8,05.0,03.4,0676.5,31.2
2021-07-01T21:44:00Z,00000200,00000000,-000.02,0000.02,-000.03,0000.28,0000.25,0000.16,0000.09,-000.10,0000.33,19.5,25.8,05.0,03.4,0676.5,31.2
2021-07-01T21:45:00Z,00000200,00000000,0000.43,0000.15,0000.02,0000.92,-000.35,-000.19,-000.10,0000.01,-000.17,19.5,25.8,05.0,03.4,0676.5,31.2
2021-07-01T21:46:00Z,00000200,00000000,0000.13,0000.25,0000.15,0000.21,0000.14,-000.02,0000.01,-000.26,-000.00,19.5,25.8,05.0,03.4,0676.5,31.2
2021-07-01T21:47:00Z,00000200,00000000,0000.17,-000.34,-000.05,0000.11,-000.09,0000.21,-000.09,0000.15,-000.07,19.5,25.8,04.9,03.4,0676.5,31.2
2021-07-01T21:48:00Z,00000200,00000000,0000.29,0000.09,0000.23,0000.05,0000.03,-000.14,0000.07,0000.30,0000.15,19.4,25.8,04.9,03.3,0676.5,31.2
2021-07-01T21:49:00Z,00000200,00000000,0000.19,0000.27,0000.05,0000.81,0000.02,0000.04,0000.24,0000.04,-000.07,19.4,25.8,04.9,03.4,0676.5,31.2
2021-07-01T21:50:00Z,00000200,00000000,-000.13,-000.16,-000.10,-000.04,-000.04,-000.11,-000.05,-000.26,0000.14,19.4,25.7,05.0,03.4,0676.5,31.2
2021-07-01T21:51:00Z,00000200,00000000,-000.22,0000.09,-000.36,0000.22,0000.00,-000.03,-000.01,-000.01,-000.09,19.4,25.7,04.9,03.3,0676.5,31.2
2021-07-01T21:52:00Z,00000200,00000000,0000.21,0000.20,0000.06,0000.10,-000.06,-000.07,0000.03,0000.30,0000.25,19.4,25.7,05.0,03.4,0676.4,31.2
2021-07-01T21:53:00Z,00000200,00000000,-000.06,0000.09,0000.07,0000.12,0000.34,0000.24,0000.02,-000.03,-000.08,19.4,25.7,05.0,03.4,0676.4,31.2
2021-07-01T21:54:00Z,00000200,00000000,0000.72,0000.33,0000.05,0000.18,0000.06,0000.16,0000.17,-000.03,0000.11,19.4,25.7,05.0,03.4,0676.5,31.2
2021-07-01T21:55:00Z,00000200,00000000,0000.54,0000.00,-000.03,-000.14,0000.07,0000.11,-000.20,-000.03,-000.06,19.5,25.8,05.0,03.4,0676.5,31.2
2021-07-01T21:56:00Z,00000200,00000000,-000.05,-000.38,0000.17,0000.54,-000.06,0000.33,0000.05,0000.16,-000.10,19.5,25.8,05.0,03.4,0676.5,31.2
2021-07-01T21:57:00Z,00000200,40000000,,,,,,,-000.04,-000.17,0000.32,19.6,25.8,05.1,03.5,0676.4,31.3
2021-07-01T21:58:00Z,00000200,60000000,,,,,,,-000.01,0000.06,-000.41,19.4,26.0,04.9,03.3,0675.5,31.2
2021-07-01T21:59:00Z,00000200,20000000,,,,,,,-000.13,-000.32,0000.12,19.4,26.0,04.8,03.2,0675.5,31.2
